Regional Weather Roundup
Issued by NWS

Home | Current Version | Previous Version | Text Only | Print | Product List | Glossary On
Versions: 1 2 3 4 5 6 7 8 9 10 11 12 13 14 15 16 17 18 19 20 21 22 23 24 25 26 27 28 29 30 31 32 33 34 35 36 37 38 39 40 41 42 43 44 45 46 47 48 49 50
000
ASUS44 KFWD 290315
RWRTX
NORTH TEXAS HOURLY WEATHER ROUNDUP
NATIONAL WEATHER SERVICE FORT WORTH TX
1000 PM CDT FRI AUG 28 2015

NOTE: "FAIR" INDICATES FEW OR NO CLOUDS BELOW 12,000 FEET WITH NO
SIGNIFICANT WEATHER AND/OR OBSTRUCTIONS TO VISIBILITY.

TXZ118-119-290400-
DALLAS/FORT WORTH METROPLEX

CITY           SKY/WX    TMP DP  RH WIND       PRES   REMARKS
DFW AIRPORT    MOCLDY    86  62  44 SE10      29.95R
DALLAS LOVE    PTCLDY    86  64  47 SE14      29.95R
FTW MEACHAM    PTCLDY    88  62  41 SE10      29.95R
DAL-EXECUTIVE  CLEAR     83  63  50 SE7       29.96R
FTW-ALLIANCE   MOCLDY    87  62  43 SE8       29.95R
FTW-NAS-JRB    MOCLDY    88  62  41 SE10      29.91S
FTW-SPINKS     PTCLDY    79  63  57 SE5       29.98R
ARLINGTON      CLEAR     85  62  46 SE8       29.96R
GRAND PRAIRIE  PTCLDY    84  64  50 SE5       29.97R
ADDISON        PTCLDY    86  63  45 SE12      29.97
MESQUITE       CLEAR     81  64  55 E8        29.96R
LANCASTER      CLEAR     83  62  48 E3        29.97R
$$

TXZ091>094-102>105-117-120-121-131>134-290400-
NORTH CENTRAL TEXAS

CITY           SKY/WX    TMP DP  RH WIND       PRES   REMARKS
SHRMAN/DENISON PTCLDY    84  67  56 SE10      29.97S
GAINESVILLE    CLOUDY    84  64  50 SE13      29.98R
BOWIE          MOCLDY    81  64  55 CALM      29.97R
BRIDGEPORT     CLOUDY    86  64  47 S8        29.98R
DECATUR        CLOUDY    86  59  39 SE6       29.97R
DENTON         MOCLDY    87  65  47 SE10      29.95R
MCKINNEY       CLEAR     82  66  58 SE6       29.96R
GREENVILLE     CLEAR     77  63  61 SE6       29.98R
ROCKWALL       CLEAR     81  66  59 SE7       29.96R
TERRELL        CLEAR     80  66  62 E6        29.98R
WAXAHACHIE     CLEAR     80  65  61 CALM      29.98R
CLEBURNE         N/A     82  63  51 SE9       29.99R
GRANBURY       PTCLDY    85  62  45 SE7       29.98R
$$

TXZ083>090-098>101-113>116-127>130-139>142-154-155-290400-
WESTERN NORTH TEXAS

CITY           SKY/WX    TMP DP  RH WIND       PRES   REMARKS
WICHITA FALLS  CLOUDY    82  67  60 S8        29.94R
WF-KICKAPOO    CLOUDY    87  66  49 S5        29.96R
VERNON         MOCLDY    82  59  45 SE9       29.95R
ABILENE        MOCLDY    86  58  38 SE14      29.97R
ABILENE-DYESS  MOCLDY    87  60  39 E12       29.96R
BRECKENRIDGE   MOCLDY    87  59  38 SE10G16   29.95R
GRAHAM         MOCLDY    86  63  45 SE7       29.95R
MINERAL WELLS  PTCLDY    80  64  58 SE8       29.95R
STEPHENVILLE   MOCLDY    83  59  44 SE8       30.00R
COMANCHE       MOCLDY    86  58  38 SE10G16   29.98R
BROWNWOOD      CLOUDY    84  57  39 SE10      29.98R
COLEMAN        PTCLDY    84  56  38 SE7       29.98R
BRADY          CLEAR     84  52  32 E6        29.99R
$$

TXZ143>147-156>162-174-175-290400-
CENTRAL TEXAS

CITY           SKY/WX    TMP DP  RH WIND       PRES   REMARKS
WACO           CLEAR     84  63  49 S8        29.95R
WACO-TSTC      CLEAR     77  61  57 CALM      29.96R
WACO-MCGREGOR  CLEAR     83  61  47 SE10      29.97R
HILLSBORO      CLEAR     82  61  48 E8        29.97R
CORSICANA      CLEAR     80  66  62 E7        29.98R
MEXIA          CLEAR     80  63  55 SE17      29.97R
HEARNE         CLEAR     80  65  61 SE6       29.98R
CAMERON        CLEAR     82  64  53 S9        29.96R
TEMPLE         CLEAR     82  61  47 SE14      29.98R
KILLEEN        CLEAR     82  60  47 SE10      29.98R
KILLEEN-SKYLRK CLEAR     82  61  47 SE12      29.97R
FORT HOOD      CLEAR     83  61  46 SE14      29.97R
GATESVILLE     CLEAR     82  61  47 SE6       30.00R
HAMILTON       PTCLDY    83  57  41 MISG      29.99R
$$

TXZ095>097-106>112-122>126-135>138-148>153-164>167-290400-
EAST TEXAS

CITY           SKY/WX    TMP DP  RH WIND       PRES   REMARKS
PARIS          CLEAR     77  57  50 SE8       30.00R
SULPHUR SPRNGS CLEAR     78  63  60 E6        30.01R
MOUNT PLEASANT CLEAR     73  63  70 E5        30.01R
GILMER         CLEAR     72  65  79 CALM      30.00R
MINEOLA        PTCLDY    73  68  83 CALM      29.99R
TYLER          CLEAR     80  64  58 E6        29.99R
LONGVIEW       CLEAR     73  66  78 CALM      29.99R
MARSHALL       CLEAR     73  69  86 CALM      30.02R
ATHENS         CLEAR     73  64  73 CALM      29.97R
PALESTINE      CLEAR     81  64  54 E5        29.99R
JACKSONVILLE   CLEAR     79  62  55 E3        30.01R
HENDERSON      CLEAR     72  67  85 CALM      30.00R
CENTER         FAIR      73  68  83 CALM      29.98R
NACOGDOCHES    CLEAR     72  64  78 CALM      29.98R
LUFKIN         FAIR      76  60  57 CALM      29.98R
$$

SUPPLEMENTAL OBSERVATIONS (CENTRAL)

CITY           SKY/WX    TMP DP  RH WIND       PRES   REMARKS
LAKE TEXOMA      N/A     82  63  51 SE7         N/A
CADDO GRASSLND   N/A     81  63  54 SE6         N/A
PAT MAYSE LAKE   N/A     81  59  47 E9          N/A
GREENVILLE       N/A     79  64  61 SE3         N/A
CEDAR HILL       N/A     82  61  47 SE5         N/A
LAKE LIMESTONE   N/A    N/A N/A N/A S5          N/A
MCGREGOR         N/A     84  59  42 S13         N/A
TEMPLE           N/A     82  61  47 S9          N/A
$$

SUPPLEMENTAL OBSERVATIONS (WEST)

CITY           SKY/WX    TMP DP  RH WIND       PRES   REMARKS
MILLERS CREEK    N/A     86  61  42 SE9         N/A
POSSUM KINGDOM   N/A     86  59  39 SE9         N/A
LBJ GRASSLAND    N/A     86  61  42 S7          N/A
GRANBURY         N/A     84  59  42 SE8         N/A
COMANCHE         N/A     84  54  34 SE13        N/A
HAMBY            N/A     84  57  39 SE10        N/A
$$

SUPPLEMENTAL OBSERVATIONS (EAST)

CITY           SKY/WX    TMP DP  RH WIND       PRES   REMARKS
TEXARKANA        N/A     66  64  94 CALM        N/A
LINDEN           N/A     70  63  78 CALM        N/A
CADDO LAKE       N/A     64  63  94 CALM        N/A
LUFKIN           N/A     73  63  68 MISG        N/A
N SABINE NF      N/A     70  63  78 MISG        N/A
$$

SUPPLEMENTAL OBSERVATIONS ARE A COLLECTION OF AUTOMATED INSTRUMENTS
THAT ARE MAINTAINED BY A VARIETY OF FEDERAL AND STATE AGENCIES.
CERTAIN ELEMENTS...SUCH AS HUMIDITY VALUES AND SUSTAINED WIND
SPEEDS...MAY BE APPROXIMATED.



USA.gov is the U.S. government's official web portal to all federal, state and local government web resources and services.